Tracking 19638 objects as of 21-Apr-2019
HD Live streaming from Space Station
objects crossing your sky now

CBERS 1 DEB

Track CBERS 1 DEB now!
10-day predictions


NORAD ID: 34204
Int'l Code: 1999-057RF
Perigee: 501.0 km
Apogee: 507.4 km
Inclination: 98.2 °
Period: 94.6 minutes
Semi major axis: 6875 km
RCS: 0.0103 m2 (small)
Launch date: October 14, 1999
Source: China/Brazil (CHBZ)
Launch site: Taiyaun Space Center, China (TSC)

Note: This is SATELLITE DEBRIS
aabbcc
Your satellite tracking list
Your tracking list is empty




NASA's NSSDC Master Catalog

Two Line Element Set (TLE):
1 34204U 99057RF  19110.45618882  .00020887  00000-0  89203-3 0  9997
2 34204  98.1999 191.7676 0004625 163.0867 197.0522 15.22908881585238
Source of the keplerian elements: AFSPC